www.pogodaiklimat.ru
ПОГОДА в Гайсине

Архив погоды в Гайсине (Винницкая область, Украина)

Время
(UTC), дата
18 11.08
21 11.08
00 12.08
03 12.08
06 12.08
09 12.08
12 12.08
15 12.08
18 12.08
21 12.08
00 13.08
03 13.08
06 13.08
09 13.08
12 13.08
15 13.08
18 13.08
21 13.08
00 14.08
03 14.08
06 14.08
09 14.08
12 14.08
15 14.08
18 14.08
21 14.08
00 15.08
03 15.08
06 15.08
09 15.08
12 15.08
15 15.08
18 15.08
21 15.08
00 16.08
03 16.08
06 16.08
09 16.08
12 16.08
15 16.08
18 16.08
21 16.08
00 17.08
03 17.08
06 17.08
15 17.08
18 17.08
21 17.08
00 18.08
03 18.08
06 18.08
09 18.08
12 18.08
15 18.08
Ветер
(напр.,м/с)
Видим. Явления Облачность Т
(С)
Тd
(С)
f
(%)
Тe
(С)
Тes
(С)
Комфортность P
(гПа)
Po
(гПа)
Тmin
(С)
Tmax
(С)
R
(мм)
R24
(мм)
S
(см)
4 н/о 8 баллов +19.3 +17.3 88 +21 +21 комфорт 1016.5 992.0
3 н/о дымка н/о +19.2 +18.0 93 +21 комфорт 1016.5 992.0
3 н/о в посл. час гроза н/о +19.0 +18.0 94 +21 комфорт 1016.5 992.0
2 н/о слаб. ливневой дождь н/о +19.0 +18.3 96 +21 комфорт 1015.2 990.7
4 н/о н/о +19.6 +18.3 92 +22 комфорт 1015.1 990.7
4 н/о 9 баллов +20.6 +18.5 88 +25 +26 комфорт 1015.1 990.7
4 н/о в посл. час ливневой дождь н/о +21.3 +19.8 91 +26 душно 1016.3 992.0
4 н/о гроза, ливневой дождь н/о +20.2 +18.9 92 +24 комфорт 1015.1 990.7
2 н/о дымка н/о +18.5 +17.5 94 +20 1015.2 990.7
2 н/о дымка н/о +19.3 +18.5 95 +22 комфорт 1015.2 990.7
2 н/о дымка н/о +19.2 +18.0 93 +22 комфорт 1013.7 989.3
2 н/о дымка н/о +17.4 +16.4 94 +18 1012.6 988.0
2 н/о 9 баллов +18.3 +16.8 91 +19 +20 1012.5 988.0
3 н/о 9 баллов +22.7 +18.9 79 +29 +30 очень
душно
1012.1 988.0
2 н/о в посл. час ливневой дождь н/о +23.2 +20.7 86 +31 очень
душно
1012.0 988.0
3 н/о гроза, ливневой дождь н/о +26.8 +20.1 67 +33 очень
душно
1009.0 985.3
3 н/о гроза, ливневой дождь н/о +21.7 +18.5 82 +26 душно 1010.9 986.7
2 н/о гроза без осадков н/о +20.3 +19.1 93 +25 комфорт 1009.5 985.3
2 н/о дымка н/о +20.1 +18.9 93 +24 комфорт 1009.6 985.3
2 н/о 9 баллов +19.6 +16.8 84 +22 +22 комфорт 1009.6 985.3
2 н/о 7 баллов +21.6 +17.6 78 +26 +27 душно 1009.5 985.3
3 н/о 7 баллов +26.2 +18.8 64 +31 +35 очень
душно
1007.7 984.0
4 н/о 7 баллов +24.8 +18.5 68 +29 +32 душно 1009.2 985.3
4 н/о 7 баллов +25.0 +17.5 63 +29 +30 душно 1007.8 984.0
3 н/о н/о +22.4 +18.6 79 +28 душно 1008.0 984.0
2 н/о 7 баллов +20.4 +17.8 85 +24 +24 комфорт 1008.2 984.0
2 н/о 7 баллов +20.2 +17.6 85 +24 +24 комфорт 1008.2 984.0
2 н/о 7 баллов +18.2 +16.5 90 +19 +19 1007.1 982.7
3 н/о 9 баллов +19.8 +17.2 85 +23 +23 комфорт 1006.9 982.7
4 н/о 6 баллов +26.0 +17.1 58 +30 +34 душно 1005.0 981.3
4 н/о 8 баллов +27.0 +16.9 54 +31 +32 душно 1006.4 982.7
4 н/о 9 баллов +24.6 +17.3 64 +29 +29 душно 1006.5 982.7
3 н/о н/о +21.8 +19.0 84 +27 душно 1006.8 982.7
3 н/о в посл. час гроза н/о +20.0 +18.5 91 +23 комфорт 1006.9 982.7
2 н/о дымка н/о +18.6 +17.6 94 +20 1007.0 982.7
штиль 0 н/о дымка н/о +18.4 +17.6 95 +19 1007.1 982.7
1 н/о 6 баллов +21.2 +18.8 86 +26 +28 душно 1005.4 981.3
3 н/о 4 балла +25.1 +17.6 63 +29 +36 душно 1005.1 981.3
3 н/о 7 баллов +26.9 +17.1 55 +31 +34 душно 1006.4 982.7
2 н/о слаб. ливневой дождь н/о +22.7 +20.6 88 +30 очень
душно
1005.2 981.3
2 н/о в посл. час ливневой дождь н/о +19.4 +18.4 94 +22 комфорт 1007.0 982.7
2 н/о дымка н/о +18.6 +17.6 94 +20 1008.4 984.0
1 н/о дымка н/о +18.5 +17.7 95 +20 1008.4 984.0
штиль 0 н/о дымка н/о +18.4 +17.7 96 +19 1008.4 984.0
1 н/о 8 баллов +19.4 +18.1 92 +23 +24 комфорт 1008.3 984.0
1 н/о 7 баллов +24.8 +18.5 68 +29 +30 душно 1006.5 982.7
3 н/о слаб. ливневой дождь н/о +19.6 +18.8 95 +22 комфорт 1008.3 984.0
2 н/о дымка н/о +19.3 +18.5 95 +22 комфорт 1008.3 984.0
2 н/о дымка н/о +19.1 +18.4 96 +21 комфорт 1009.7 985.3
1 н/о дымка н/о +18.6 +17.9 96 +21 комфорт 1008.4 984.0
1 н/о 4 балла +20.6 +19.1 91 +26 +29 душно 1009.5 985.3
3 н/о 4 балла +25.6 +20.2 72 +32 +38 очень
душно
1007.8 984.0
3 н/о 7 баллов +27.4 +19.2 61 +33 +36 очень
душно
1009.0 985.3
4 н/о 6 баллов +27.6 +18.3 57 +32 +33 очень
душно
1007.6 984.0
Местоположение метеостанции Гайсин (Винницкая область, Украина): широта 48.80 долгота 29.40 высота над уровнем моря 211 м.
В архиве по умолчанию представлена погода в Гайсине за последнюю неделю. Архивные данные за месяц целиком и за предыдущие месяцы, начиная с января 2011 года, Вы можете получить, выбрав интересующий диапазон дат из раскрывающегося списка и нажав кнопку "Найти!".
*Определитесь, кто Вы:
Внимание! Время в таблицах - всемирное. Для получения местного времени необходимо прибавить поправку, которая равна 2 ч.
Смотрите также архив погоды в соседних городах и на ближайших метеорологических станциях:
Партнеры нашего сайта:      
Пояснения к столбцам:
  • Ветер - указаны скорость ветра в м/с - средняя за 10 мин, порывы в срок и между сроками (в фигурных скобках) и направление, откуда дует ветер: С - северный,
  • СВ - северо-восточный, В - восточный, ЮВ - юго-восточный, Ю - южный, ЮЗ - юго-западный, З - западный, СЗ - северо-западный.
  • Видимость - горизонтальная дальность видимости в метрах или километрах. При видимости от 1 до 10 км при отсутствии осадков обычно наблюдается дымка, при ухудшении видимости до 1 км и менее - туман. В сухую погоду видимость может ухудшаться дымом, пылью или мглою.
  • Явления - указаны атмосферные явления, наблюдавшиеся в срок или в последний час перед сроком; фигурными скобками обозначены явления, наблюдавшиеся между сроками (за 1-3 часа до срока); квадратными скобками обозначены град или гололедные отложения с указанием их диаметра в мм.
  • Облачность - указаны через наклонную черту общая и нижняя облачность в баллах и высота нижней границы облаков в метрах; квадратными скобками обозначены формы облаков: Ci - перистые, Cs - перисто-слоистые, Cc - перисто-кучевые, Ac - высококучевые, As - высокослоистые, Sc - слоисто-кучевые, Ns - слоисто-дождевые, Cu - кучевые, Cb - кучево-дождевые. Подробнее классификацию облаков см. в Атласе облаков (PDF).
  • T - Температура воздуха - температура, измеренная на высоте 2 м над землей.
  • Td - Температура точки росы - температура, при понижении до которой содержащийся в воздухе водяной пар достигнет насыщения.
  • f - Относительная влажность воздуха - влажноcть воздуха, измеренная на высоте 2 м над землей.
  • Te - Эффективная температура - температура, которую ощущает одетый по сезону человек в тени. Характеристика душности погоды. При расчете учитывается влияние влажности воздуха и скорости ветра на теплоощущения человека.
  • Tes - Эффективная температура на солнце - температура, которую ощущает человек, с поправкой на солнечный нагрев. Характеристика знойности погоды. Зависит от высоты солнца над горизонтом, облачности и скорости ветра. Ночью, в пасмурную погоду, а также при ветре 12 м/с и более поправка равна нулю.
  • P - Атмосферное давление - приведенное к уровню моря атмосферное давление.
  • Po - Атмосферное давление - измеренное на уровне метеостанции атмосферное давление.
  • Tmin - Минимальная температура - минимум температуры воздуха на высоте 2 м над землей.
  • Tmax - Максимальная температура - максимум температуры воздуха на высоте 2 м над землей.
  • R - Количество осадков - Количество выпавших осадков за период времени, мм. При наведении курсора мыши на число - период времени, за который выпало указанное количество осадков.
  • R24 - Количество осадков - Количество выпавших осадков за 24 часа, мм.
  • S - Снежный покров - Высота снежного покрова, см. При наведении курсора мыши на число - состояние снежного покрова и степень покрытия местности в баллах.